Location: Olda
(45.8833°N, 9.5500°E)
Time: 16:25:17
(UTC+00:00)

Cosmos 1959 Rocket - Pass Details

Date: 03 March 2021
Orbit: 948 x 996 km, 82.9° (Epoch: 11 April)

Event Time Altitude Azimuth Distance (km) Brightness Sun altitude
Rises 19:09:41 0° 183° (S) 3,608 7.4 -21.3°
Reaches altitude 10° 19:12:09 10° 182° (S) 2,665 6.7 -21.7°
Maximum altitude 19:18:14 81° 97° (E) 966 4.3 -22.7°
Drops below altitude 10° 19:24:23 10° 10° (N) 2,688 6.9 -23.7°
Sets 19:26:53 0° 10° (N) 3,642 7.6 -24.2°
